CYGNUS NG-21

Last updated on Wed Sep 11 2024 00:02:08 GMT+0000 (Coordinated Universal Time)

1 60378U 24139A 24253.87704602 .00012401 00000+0 23421-3 0 9995 2 60378 51.6395 255.8321 0007834 334.1073 94.7593 15.48815630 5489
UTC large
Height (km)
Speed (km/s)
/
Latitude / Longitude
Inclination (degrees)
Orbital Period (minutes)
Azimuth
Elevation
Range (km)
Doppler Factor

Next 0 passes for location: London (51.5072 / 0.1276)

Sorry there are no passes over London.